GFSNW_700_temp_255.txt.gz
Temp
3 4 4 5 5 5 5 6 6 6 6 6 6 7 7 6 6 6 5 5 4 4 4 4 3 3 2 2 1 0 0 -0 -1 -0 1 -0 -1 -2 -2 -1 -0 -2 -3 -2
3 3 3 4 4 4 4 5 5 5 6 5 6 6 6 6 6 5 5 4 4 3 3 3 2 2 1 1 -0 -1 -1 -2 -1 1 -0 -1 -1 -1 -2 -3 -4 -4 -2 -0
2 3 2 3 3 3 4 4 4 5 5 5 5 6 6 5 5 5 4 4 3 3 2 2 2 1 0 -0 -1 -1 -2 -2 -1 -1 -1 -2 -3 -3 -4 -4 -5 -4 -3 -2
2 2 2 2 2 3 3 3 4 4 5 5 5 5 5 5 4 4 4 3 3 2 1 1 1 0 -0 -0 -1 -1 -1 -2 -2 -2 -2 -2 -3 -3 -3 -4 -4 -5 -2 -4
1 2 2 2 2 2 2 3 4 4 4 4 5 4 4 4 4 4 3 3 2 1 1 0 -1 -0 -0 -1 -1 -1 -2 -2 -3 -3 -3 -3 -4 -2 -3 -4 -3 -5 -3 -4
0 1 1 2 1 1 2 2 3 3 4 4 3 4 4 4 3 3 2 2 1 1 0 -0 -0 -0 -0 -1 -1 -2 -2 -3 -3 -3 -3 -4 -4 0 1 0 -1 -2 -3 -4
-1 -0 0 1 1 1 1 2 2 2 3 3 3 3 3 3 3 2 2 1 1 1 0 -0 -1 -0 -1 -1 -1 -1 -2 -3 -4 -4 -4 -4 -1 -1 -2 -2 -3 -3 -3 -4
-1 -1 -0 0 1 1 1 1 1 2 2 3 3 2 2 2 2 1 1 1 0 -0 -0 -1 -1 -1 -1 -0 -1 -1 -1 -3 -4 -4 -4 -3 -1 -1 -2 -3 -4 -4 -4 -5
-1 -1 -1 -0 0 0 1 1 1 1 2 2 2 2 1 1 1 1 1 0 0 -1 -1 -1 -1 -1 -1 -1 -1 -2 -2 -3 -5 -6 -6 -2 -1 -2 -3 -4 -5 -5 -6 -7
-2 -1 -1 -0 -0 -0 0 0 0 0 1 2 2 1 1 1 0 0 0 -0 -0 -1 -1 -2 -2 -2 -2 -2 -2 -2 -3 -4 -5 -6 -6 -4 -3 -3 -4 -6 -4 -6 -7 -8
-2 -1 -1 -1 -1 -1 -1 -0 -1 -1 -0 1 0 0 0 0 -0 0 0 -1 -1 -1 -2 -2 -2 -2 -2 -2 -2 -2 -2 -3 -5 -6 -7 -6 -3 -4 -5 -6 -7 -7 -8 -8
-2 -1 -1 -1 -1 -1 -1 -1 -2 -1 -1 -0 -0 -0 -1 -0 0 -1 -1 -1 -2 -2 -2 -2 -2 -2 -2 -2 -3 -3 -3 -2 -3 -4 -3 -3 -4 -5 -6 -6 -7 -8 -9 -9
-3 -2 -1 -1 -1 -1 -1 -0 -1 -2 -2 -1 -1 -0 -0 -1 -1 -1 -2 -2 -2 -3 -3 -3 -3 -3 -2 -2 -3 -3 -3 -4 -4 -4 -4 -4 -5 -6 -7 -7 -8 -8 -9 -10
-4 -3 -2 -1 -2 -1 -1 -2 -1 -2 -2 -2 -1 -1 -1 -1 -1 -1 -2 -2 -2 -3 -3 -2 -2 -3 -3 -3 -3 -3 -4 -4 -4 -5 -5 -6 -6 -7 -7 -8 -9 -9 -9 -10
-5 -4 -3 -2 -2 -2 -1 -1 -1 -1 -1 -1 -2 -1 -1 -1 -1 -2 -1 -2 -2 -2 -2 -3 -3 -3 -3 -3 -4 -4 -3 -4 -5 -6 -6 -7 -7 -8 -8 -9 -9 -9 -10 -10
-5 -5 -4 -3 -2 -2 -2 -2 -2 -2 -2 -2 -2 -2 -2 -2 -2 -2 -2 -2 -3 -3 -3 -3 -3 -3 -4 -4 -4 -4 -4 -4 -5 -6 -7 -7 -8 -8 -8 -9 -9 -10 -10 -11
-6 -6 -5 -4 -3 -3 -3 -3 -2 -2 -2 -3 -3 -3 -2 -2 -2 -3 -3 -3 -3 -3 -3 -4 -5 -5 -5 -5 -5 -4 -5 -5 -6 -6 -7 -7 -8 -8 -9 -9 -10 -11 -11 -12
-7 -6 -6 -5 -5 -4 -3 -3 -3 -3 -3 -3 -3 -3 -3 -4 -3 -4 -4 -4 -4 -5 -5 -5 -5 -6 -6 -6 -4 -4 -5 -5 -6 -7 -7 -8 -8 -9 -9 -10 -11 -11 -12 -12
-8 -7 -6 -6 -6 -6 -5 -5 -4 -4 -3 -4 -4 -4 -3 -4 -5 -5 -5 -5 -6 -6 -6 -6 -6 -6 -7 -5 -5 -5 -6 -6 -7 -7 -8 -8 -9 -9 -10 -11 -11 -12 -12 -12
-8 -8 -7 -7 -6 -7 -6 -6 -6 -5 -6 -6 -5 -5 -5 -4 -5 -6 -6 -7 -7 -7 -6 -7 -7 -7 -6 -6 -6 -6 -6 -7 -7 -8 -8 -9 -9 -10 -11 -11 -12 -12 -13 -13
-9 -8 -8 -8 -8 -8 -7 -7 -7 -7 -7 -7 -6 -6 -6 -6 -6 -7 -7 -7 -8 -8 -8 -8 -8 -7 -5 -5 -6 -6 -7 -7 -8 -8 -9 -9 -10 -11 -11 -12 -12 -13 -13 -14
-9 -9 -9 -9 -9 -8 -8 -8 -8 -8 -8 -7 -7 -7 -7 -7 -7 -7 -8 -8 -8 -9 -9 -9 -8 -6 -6 -6 -6 -7 -8 -8 -9 -9 -9 -10 -11 -12 -12 -12 -13 -14 -14 -15
-9 -9 -9 -9 -9 -9 -9 -9 -9 -8 -8 -8 -8 -7 -8 -8 -8 -8 -8 -9 -9 -10 -9 -9 -7 -7 -7 -7 -7 -8 -8 -9 -9 -10 -10 -11 -12 -12 -13 -13 -14 -14 -15 -15
-10 -10 -10 -10 -10 -10 -9 -9 -9 -8 -9 -8 -9 -8 -8 -9 -9 -9 -9 -9 -9 -10 -9 -8 -7 -7 -8 -8 -9 -9 -9 -10 -10 -11 -12 -12 -13 -13 -13 -14 -15 -15 -16 -16
-10 -10 -10 -10 -9 -9 -9 -9 -10 -9 -10 -10 -10 -10 -9 -9 -9 -9 -10 -10 -10 -9 -8 -8 -8 -8 -8 -9 -9 -10 -10 -11 -12 -12 -13 -13 -13 -14 -14 -15 -15 -16 -16 -16
-10 -10 -10 -10 -10 -10 -9 -9 -10 -10 -10 -10 -10 -10 -10 -10 -10 -10 -10 -10 -9 -9 -8 -9 -9 -9 -10 -10 -11 -11 -12 -12 -13 -13 -13 -13 -14 -14 -15 -16 -16 -16 -17 -17
-10 -10 -10 -10 -10 -10 -10 -10 -10 -10 -10 -10 -10 -10 -10 -11 -11 -11 -10 -10 -10 -10 -10 -11 -11 -11 -11 -11 -12 -12 -13 -13 -14 -14 -14 -14 -15 -15 -16 -16 -17 -17 -17 -17

GFSNW_700_temp_261.txt.gz
Temp
-1 -0 1 1 1 2 2 3 4 4 4 4 4 5 6 6 6 6 6 6 5 5 5 5 5 5 5 4 3 3 3 3 2 2 1 1 -0 -1 -1 -1 -1 -1 -3 -1
-2 -1 -0 0 1 1 2 2 2 3 3 4 5 5 5 5 6 6 6 5 5 5 5 4 4 4 4 3 3 2 2 1 1 0 -0 0 -1 -1 -1 -1 -1 -2 -3 -1
-2 -2 -2 -2 -0 -0 0 0 1 2 3 3 4 4 4 4 5 5 5 5 5 5 4 4 4 3 3 2 2 2 1 1 2 2 1 -0 -1 -2 -2 -3 -3 -3 -2 -1
-2 -2 -2 -2 -2 -1 -1 -1 0 1 2 3 3 3 3 4 5 5 5 4 5 5 4 3 3 2 2 2 1 1 -0 -0 -0 0 -1 -1 -2 -2 -2 -3 -3 -4 2 -2
-3 -2 -2 -1 -2 -2 -2 -1 -0 0 1 2 2 2 3 4 3 4 5 5 5 4 4 4 4 3 2 2 1 0 -0 -1 -2 -1 -1 -1 -1 1 -1 -2 -2 -3 -1 -1
-5 -3 -2 -3 -2 -3 -2 -2 -1 -0 0 1 1 3 4 4 4 3 3 4 3 3 3 2 3 1 1 1 1 -0 -1 -2 -2 -2 -3 -3 -1 2 3 2 1 0 -0 -0
-7 -4 -2 -3 -3 -2 -2 -2 -2 -2 -0 1 2 2 2 3 3 2 3 2 2 2 2 1 1 0 -0 -1 -1 -1 -1 -2 -3 -3 -4 -5 1 2 1 -0 0 -0 -1 -1
-7 -6 -4 -2 -2 -2 -2 -2 -2 -2 -1 0 1 1 1 1 1 1 2 2 2 1 1 0 -0 -1 -1 -1 -1 -1 -1 -3 -3 -3 -4 -2 -0 0 1 0 -1 -1 -2 -3
-8 -8 -5 -4 -2 -2 -3 -2 -2 -3 -2 0 1 0 1 1 1 1 1 1 1 1 0 -0 -1 -0 -0 -1 -1 -0 -2 -3 -4 -4 -4 -4 -1 -1 -1 -2 -2 -1 -2 -4
-8 -8 -7 -5 -4 -3 -3 -2 -3 -3 -3 -1 0 0 1 1 0 0 1 1 0 -0 -0 -1 -1 -1 -1 -1 -1 -1 -2 -4 -4 -4 -4 -2 -1 -1 -1 -3 -2 -3 -4 -5
-9 -8 -8 -7 -5 -5 -3 -3 -3 -2 -2 -1 -1 -2 -0 0 0 0 1 -0 -1 -0 -1 -2 -2 -2 -2 -2 -1 -1 -1 -2 -4 -5 -6 -5 -1 -1 -3 -3 -4 -4 -5 -6
-9 -9 -8 -7 -7 -6 -5 -4 -3 -3 -3 -2 -1 -1 -1 -1 -1 -1 -0 -0 1 1 -0 -0 -1 -1 -1 -1 -2 -1 -2 -2 -1 -2 -1 -1 -2 -2 -3 -4 -4 -5 -6 -6
-9 -9 -8 -8 -8 -7 -6 -4 -3 -3 -3 -3 -1 -1 -1 -2 -2 -2 -2 -1 -1 -0 0 -1 -1 -1 -2 -2 -2 -2 -2 -2 -3 -2 -2 -3 -3 -3 -4 -4 -5 -6 -6 -7
-10 -9 -8 -8 -8 -8 -6 -5 -3 -3 -3 -3 -2 -1 -1 -1 -2 -2 -2 -2 -2 -1 -1 -1 -1 -2 -2 -2 -2 -2 -3 -3 -3 -3 -3 -3 -3 -4 -5 -5 -6 -6 -7 -8
-10 -10 -9 -8 -7 -7 -7 -6 -5 -4 -3 -3 -3 -1 -1 -1 -2 -2 -2 -3 -3 -3 -2 -2 -2 -2 -3 -2 -3 -2 -2 -2 -3 -3 -3 -4 -4 -5 -5 -6 -7 -7 -8 -8
-10 -10 -9 -8 -8 -7 -7 -6 -5 -4 -4 -4 -4 -3 -2 -2 -2 -2 -2 -2 -3 -3 -3 -2 -2 -3 -2 -2 -2 -2 -3 -3 -3 -4 -4 -5 -5 -6 -6 -7 -7 -8 -8 -8
-10 -10 -9 -9 -8 -7 -7 -6 -6 -4 -4 -4 -4 -4 -3 -2 -3 -3 -3 -2 -3 -3 -2 -2 -2 -2 -2 -3 -2 -3 -3 -3 -4 -4 -5 -5 -6 -7 -7 -7 -8 -8 -8 -9
-10 -10 -9 -9 -8 -7 -7 -6 -6 -5 -4 -4 -4 -4 -4 -4 -4 -3 -2 -2 -2 -3 -3 -3 -3 -3 -4 -4 -3 -4 -4 -4 -5 -5 -6 -6 -7 -7 -7 -8 -8 -8 -9 -10
-10 -9 -9 -9 -9 -8 -7 -6 -6 -6 -5 -5 -5 -4 -4 -4 -4 -3 -3 -3 -4 -4 -5 -4 -4 -4 -5 -5 -4 -5 -5 -5 -6 -6 -7 -7 -7 -8 -8 -8 -9 -9 -10 -10
-10 -10 -9 -9 -9 -8 -7 -6 -6 -6 -6 -6 -5 -5 -4 -4 -4 -4 -4 -5 -5 -6 -6 -6 -6 -6 -5 -6 -6 -6 -6 -6 -7 -8 -8 -8 -8 -8 -8 -9 -10 -10 -11 -11
-10 -10 -9 -9 -9 -8 -8 -7 -7 -7 -7 -6 -6 -5 -5 -5 -5 -5 -6 -7 -7 -7 -7 -7 -7 -7 -6 -6 -7 -7 -7 -7 -8 -8 -8 -8 -8 -9 -9 -10 -10 -11 -11 -12
-10 -10 -9 -9 -9 -9 -8 -8 -8 -8 -7 -6 -6 -6 -5 -6 -7 -8 -8 -8 -8 -8 -8 -8 -8 -8 -7 -7 -7 -8 -8 -7 -7 -8 -8 -9 -9 -10 -10 -11 -11 -12 -12 -12
-10 -10 -9 -9 -9 -9 -9 -9 -9 -8 -8 -7 -7 -7 -7 -8 -8 -8 -8 -8 -8 -8 -9 -9 -9 -8 -8 -8 -8 -7 -7 -8 -8 -9 -9 -10 -10 -11 -11 -12 -12 -13 -13 -13
-10 -10 -10 -10 -10 -9 -9 -9 -9 -8 -8 -8 -8 -8 -8 -8 -8 -9 -9 -9 -9 -9 -9 -10 -9 -9 -9 -9 -8 -8 -8 -8 -9 -10 -10 -11 -11 -12 -12 -13 -13 -13 -13 -14
-10 -10 -10 -10 -10 -9 -9 -9 -9 -9 -9 -9 -9 -9 -9 -9 -9 -9 -9 -10 -10 -10 -10 -10 -10 -10 -9 -9 -8 -9 -9 -9 -10 -11 -12 -12 -13 -13 -13 -13 -13 -14 -14 -15
-10 -10 -10 -10 -10 -10 -10 -10 -10 -10 -10 -9 -9 -9 -9 -10 -10 -9 -9 -9 -10 -10 -10 -10 -10 -10 -10 -10 -10 -10 -11 -11 -12 -13 -13 -13 -14 -14 -14 -14 -14 -15 -15 -16
-10 -10 -10 -10 -10 -10 -10 -10 -10 -10 -10 -9 -9 -9 -9 -10 -9 -10 -10 -10 -10 -10 -11 -11 -11 -11 -11 -11 -12 -12 -12 -13 -13 -14 -14 -14 -15 -16 -16 -15 -15 -16 -16 -17

GFSNW_700_temp_267.txt.gz
Temp
-7 -6 -6 -3 -4 -2 -2 -2 -1 0 2 1 1 3 3 4 5 5 5 5 5 6 6 5 5 5 6 6 5 5 4 3 3 3 3 3 2 2 1 2 -1 -1 -3 1
-8 -7 -7 -6 -5 -3 -2 -2 -2 -1 -1 -0 -0 0 2 3 4 4 4 4 5 5 5 4 5 5 5 5 5 5 4 3 2 1 1 2 1 1 1 0 0 -1 -3 2
-9 -8 -7 -6 -6 -3 -3 -3 -3 -2 -2 -1 0 0 1 2 3 3 4 3 3 4 4 5 4 5 5 4 4 3 3 3 3 3 3 3 2 2 1 -0 -1 -1 0 3
-9 -9 -9 -8 -6 -6 -5 -5 -4 -3 -1 -1 -0 -0 1 2 2 3 3 3 3 3 4 4 4 4 4 4 3 2 1 2 2 2 2 1 1 0 0 0 1 -1 3 1
-10 -10 -10 -9 -8 -6 -7 -6 -5 -4 -3 -2 -0 -1 1 0 1 2 3 3 4 3 4 5 5 4 4 3 3 2 1 1 1 1 1 0 0 1 0 0 -1 -2 -1 1
-11 -10 -10 -10 -9 -8 -7 -7 -6 -5 -4 -4 -3 -1 1 1 1 1 2 2 2 2 3 3 2 2 2 2 3 2 1 1 0 -1 -1 -1 -2 4 3 3 3 2 -0 4
-11 -11 -11 -10 -10 -9 -8 -7 -7 -6 -6 -5 -4 -2 -1 -0 -0 0 1 1 1 2 2 2 1 1 1 1 1 1 0 0 -1 -1 -2 -4 2 2 3 3 4 3 2 1
-11 -11 -11 -11 -11 -10 -9 -8 -8 -7 -7 -7 -5 -5 -3 -1 -1 -1 -1 -0 0 1 0 1 -0 -1 -1 -0 0 -1 -1 -1 -1 -2 -2 -1 2 2 2 2 3 2 2 1
-12 -12 -11 -11 -11 -11 -9 -8 -8 -8 -7 -6 -7 -5 -4 -4 -2 -1 -1 -1 -1 -1 -1 -1 -1 -1 -1 -1 -2 -2 -2 -2 -2 -3 -3 -4 1 2 2 2 0 2 1 0
-12 -12 -12 -12 -12 -11 -11 -9 -8 -8 -8 -7 -6 -6 -5 -4 -4 -2 -2 -1 -1 -2 -2 -2 -1 -1 -0 -1 -1 -2 -3 -3 -3 -2 -3 -2 -1 -1 -1 -2 2 0 0 -1
-12 -12 -12 -12 -12 -11 -11 -10 -9 -8 -8 -7 -7 -6 -5 -5 -4 -3 -2 -2 -2 -2 -3 -3 -1 -1 -1 -0 -0 1 1 -3 -4 -4 -4 -4 1 -1 -1 1 -0 -1 -1 -2
-12 -12 -13 -13 -12 -11 -10 -10 -10 -9 -8 -8 -8 -7 -5 -5 -5 -4 -3 -2 -1 -1 -2 -2 -2 -1 -1 -1 -1 -1 -0 1 1 -0 1 2 1 1 -0 -1 -1 -2 -3 -3
-12 -13 -13 -13 -12 -12 -10 -10 -10 -10 -9 -8 -7 -6 -6 -5 -4 -4 -5 -3 -2 -2 -1 -1 -1 -1 -1 -1 -1 -1 -0 -0 -0 0 1 1 0 -0 -1 -1 -2 -3 -3 -4
-12 -13 -13 -13 -12 -12 -11 -10 -9 -10 -9 -8 -7 -6 -6 -5 -4 -4 -5 -3 -3 -3 -3 -2 -2 -2 -2 -1 -1 -1 -1 -1 -0 -0 -0 -0 -0 -1 -1 -2 -2 -3 -4 -5
-12 -13 -13 -12 -12 -11 -11 -10 -10 -9 -9 -8 -7 -6 -5 -6 -4 -4 -4 -5 -4 -3 -3 -3 -3 -3 -3 -2 -2 -2 -1 -1 -1 0 -0 -1 -1 -2 -2 -2 -3 -3 -5 -5
-12 -12 -13 -12 -11 -11 -10 -10 -9 -9 -9 -8 -8 -6 -5 -6 -5 -4 -3 -4 -5 -4 -3 -3 -4 -4 -4 -3 -3 -3 -3 -2 -2 -2 -2 -2 -3 -3 -3 -3 -4 -5 -5 -6
-13 -13 -13 -12 -11 -11 -10 -10 -9 -8 -8 -9 -8 -7 -5 -5 -5 -4 -4 -3 -4 -5 -4 -4 -5 -5 -5 -4 -4 -4 -3 -3 -3 -3 -3 -3 -3 -3 -3 -4 -5 -6 -6 -7
-13 -13 -12 -11 -11 -11 -10 -10 -10 -9 -9 -9 -8 -6 -5 -5 -5 -5 -4 -4 -4 -4 -6 -5 -6 -5 -5 -4 -4 -4 -4 -4 -4 -4 -3 -4 -3 -4 -5 -6 -6 -7 -8 -9
-13 -13 -12 -11 -11 -10 -9 -10 -10 -9 -9 -9 -8 -7 -6 -5 -5 -5 -5 -5 -5 -5 -5 -5 -6 -5 -5 -5 -5 -5 -4 -4 -4 -4 -4 -4 -5 -6 -6 -7 -7 -8 -9 -9
-13 -12 -11 -11 -10 -10 -10 -10 -9 -9 -9 -9 -8 -7 -6 -5 -5 -5 -5 -5 -5 -5 -5 -5 -6 -6 -6 -5 -6 -6 -5 -5 -5 -6 -6 -6 -6 -7 -7 -8 -8 -9 -10 -10
-12 -11 -11 -10 -11 -10 -10 -10 -9 -9 -9 -9 -8 -8 -7 -6 -6 -7 -7 -6 -6 -6 -6 -6 -6 -6 -6 -6 -6 -6 -6 -6 -7 -7 -7 -7 -8 -8 -9 -9 -10 -10 -11 -11
-12 -11 -11 -10 -10 -10 -10 -9 -9 -9 -9 -9 -8 -7 -7 -7 -7 -8 -8 -8 -8 -8 -9 -8 -9 -9 -8 -8 -8 -8 -8 -8 -8 -8 -8 -9 -9 -9 -10 -10 -11 -11 -11 -12
-11 -11 -11 -10 -10 -10 -10 -10 -10 -10 -10 -10 -9 -9 -9 -9 -8 -8 -8 -8 -9 -9 -10 -10 -11 -10 -10 -10 -10 -9 -9 -9 -9 -9 -9 -10 -10 -10 -11 -11 -12 -12 -12 -12
-11 -11 -10 -10 -10 -10 -10 -10 -10 -10 -10 -10 -10 -9 -9 -9 -8 -9 -9 -10 -10 -10 -11 -12 -11 -11 -11 -11 -10 -10 -10 -10 -10 -10 -10 -10 -11 -11 -12 -12 -13 -13 -13 -13
-10 -10 -11 -11 -11 -11 -11 -11 -11 -11 -11 -10 -10 -9 -9 -9 -9 -10 -10 -10 -11 -12 -13 -12 -12 -12 -11 -11 -11 -11 -11 -11 -11 -11 -12 -12 -12 -13 -13 -13 -13 -13 -14 -14
-11 -11 -12 -12 -12 -12 -11 -11 -10 -10 -10 -10 -10 -10 -10 -10 -10 -10 -11 -11 -12 -12 -12 -11 -11 -11 -11 -11 -11 -11 -11 -12 -12 -12 -12 -13 -13 -13 -14 -14 -14 -14 -14 -15
-11 -11 -11 -11 -11 -11 -11 -11 -11 -10 -10 -10 -10 -10 -10 -10 -10 -11 -11 -12 -12 -12 -11 -11 -11 -11 -11 -11 -11 -12 -12 -13 -13 -13 -14 -14 -14 -14 -15 -15 -15 -15 -16 -16

GFSNW_700_temp_270.txt.gz
Temp
-8 -8 -9 -9 -9 -7 -7 -5 -4 -3 -2 -2 -2 -2 1 1 2 2 3 3 4 4 5 5 5 5 6 6 6 6 4 3 3 3 3 3 2 2 2 2 -0 -1 -3 1
-9 -9 -9 -10 -10 -9 -8 -6 -5 -4 -3 -3 -2 -1 -1 -1 2 2 2 2 3 3 4 4 4 5 5 5 5 6 5 2 2 1 1 1 1 2 1 1 1 1 -3 2
-9 -10 -11 -11 -11 -10 -9 -7 -7 -5 -5 -3 -2 -2 -1 -2 -0 1 2 2 2 2 3 3 3 4 5 5 5 4 3 3 4 3 5 4 2 3 2 1 0 0 1 4
-10 -10 -11 -11 -11 -11 -10 -8 -7 -7 -5 -5 -4 -3 -3 -1 -1 -1 1 2 1 1 2 2 3 3 4 4 4 3 1 2 3 3 3 3 3 2 2 2 3 0 4 2
-11 -11 -11 -12 -12 -11 -11 -9 -8 -7 -6 -6 -6 -4 -4 -3 -1 -1 -0 1 -0 1 1 2 2 2 3 3 3 3 1 2 2 2 2 1 1 1 2 1 1 0 1 2
-12 -11 -11 -12 -12 -12 -11 -10 -9 -9 -8 -7 -7 -6 -4 -4 -4 -2 -1 -0 0 -0 0 -0 0 1 1 0 1 2 2 2 1 0 1 -0 -3 3 3 3 4 3 0 7
-12 -12 -12 -12 -12 -12 -11 -11 -10 -9 -9 -9 -8 -7 -7 -5 -4 -4 -2 -1 -1 -2 -2 -2 -2 -1 -1 -1 0 1 1 1 -0 -0 -2 -3 1 3 3 4 4 3 4 4
-12 -12 -12 -12 -12 -12 -12 -11 -11 -11 -10 -9 -8 -7 -7 -7 -5 -4 -4 -2 -2 -1 -2 -3 -3 -3 -3 -2 -1 -0 -0 -0 -1 -1 -3 0 0 2 3 3 4 4 3 3
-12 -12 -12 -12 -12 -12 -12 -12 -12 -12 -11 -10 -8 -9 -8 -7 -6 -5 -5 -4 -3 -3 -3 -4 -4 -3 -2 -1 -2 -1 -1 -1 -1 -3 -2 -4 1 3 2 2 2 4 3 2
-12 -12 -12 -12 -12 -12 -12 -12 -12 -12 -11 -9 -9 -9 -8 -7 -7 -6 -5 -5 -3 -3 -3 -4 -3 -3 -2 -1 -1 -2 -3 -3 -3 -2 -2 -1 -1 1 1 0 4 2 2 1
-12 -12 -12 -12 -12 -12 -12 -12 -12 -12 -12 -10 -9 -9 -9 -8 -7 -7 -7 -5 -4 -4 -4 -4 -3 -2 -2 -1 -1 -0 -1 -3 -4 -4 -3 -2 -1 -0 0 3 2 1 0 -0
-12 -12 -12 -12 -12 -12 -13 -13 -12 -12 -11 -10 -9 -9 -9 -8 -6 -7 -7 -7 -4 -4 -3 -4 -3 -2 -2 -2 -1 -2 -2 -0 -0 -1 -1 1 2 2 1 1 0 -0 -1 -1
-12 -12 -12 -12 -12 -12 -13 -13 -11 -12 -11 -9 -9 -8 -7 -7 -6 -7 -8 -7 -6 -5 -4 -3 -3 -2 -2 -2 -2 -1 -1 -0 -0 -0 1 1 1 1 0 0 -0 -1 -1 -2
-12 -12 -12 -12 -12 -12 -13 -12 -12 -12 -12 -10 -8 -8 -7 -8 -8 -8 -7 -6 -6 -5 -5 -4 -3 -2 -2 -2 -1 -1 -1 -1 -1 -0 -0 0 0 0 0 -0 -1 -2 -2 -3
-12 -12 -12 -12 -12 -13 -13 -12 -11 -11 -11 -10 -9 -8 -6 -7 -7 -7 -7 -7 -6 -5 -5 -4 -4 -3 -3 -2 -2 -2 -1 -1 -1 -1 -0 -1 -1 -1 -2 -2 -2 -3 -3 -3
-12 -11 -12 -12 -12 -13 -13 -12 -10 -10 -10 -11 -10 -7 -7 -6 -8 -8 -7 -6 -5 -5 -5 -5 -4 -4 -3 -3 -3 -2 -2 -2 -2 -2 -2 -2 -2 -2 -2 -3 -3 -4 -4 -4
-12 -12 -12 -12 -12 -13 -13 -12 -11 -10 -10 -10 -9 -9 -7 -6 -6 -7 -6 -5 -6 -5 -5 -4 -5 -4 -4 -4 -3 -3 -3 -3 -3 -3 -3 -3 -3 -3 -3 -4 -4 -4 -4 -6
-13 -13 -13 -13 -13 -13 -12 -11 -11 -11 -10 -10 -10 -9 -8 -6 -6 -6 -5 -5 -5 -5 -5 -5 -4 -4 -4 -4 -4 -4 -4 -4 -4 -3 -4 -4 -4 -4 -4 -4 -5 -5 -6 -7
-14 -14 -13 -13 -12 -11 -11 -11 -11 -11 -11 -10 -9 -9 -9 -8 -7 -7 -6 -5 -6 -6 -5 -5 -4 -4 -4 -4 -5 -5 -5 -5 -5 -5 -5 -5 -4 -4 -5 -5 -6 -7 -7 -8
-13 -13 -13 -12 -11 -11 -11 -10 -10 -10 -10 -10 -8 -8 -8 -8 -8 -7 -7 -6 -6 -6 -5 -5 -5 -5 -5 -5 -5 -5 -5 -5 -5 -5 -5 -5 -5 -5 -6 -7 -7 -8 -9 -9
-12 -12 -12 -11 -11 -11 -11 -11 -11 -10 -9 -9 -9 -9 -9 -8 -9 -8 -7 -7 -7 -6 -6 -6 -6 -6 -6 -5 -5 -5 -6 -6 -6 -6 -6 -6 -7 -7 -8 -8 -9 -9 -9 -10
-12 -12 -11 -11 -11 -11 -10 -10 -10 -10 -10 -10 -10 -10 -10 -9 -9 -9 -8 -7 -7 -8 -9 -8 -10 -10 -9 -9 -8 -8 -8 -8 -8 -8 -8 -8 -9 -9 -10 -10 -10 -10 -11 -12
-11 -11 -11 -11 -11 -11 -11 -10 -10 -10 -10 -10 -10 -11 -11 -10 -9 -9 -9 -8 -9 -9 -9 -12 -13 -12 -12 -11 -11 -10 -10 -10 -10 -9 -10 -10 -10 -10 -10 -11 -11 -12 -12 -12
-11 -11 -11 -11 -12 -12 -12 -12 -12 -12 -11 -11 -11 -11 -10 -10 -10 -10 -10 -10 -10 -11 -12 -14 -13 -13 -13 -12 -12 -11 -11 -11 -11 -11 -11 -11 -11 -11 -12 -12 -12 -12 -12 -12
-11 -11 -12 -13 -13 -13 -12 -12 -12 -11 -11 -11 -11 -11 -10 -10 -10 -10 -11 -11 -12 -13 -14 -14 -13 -13 -13 -12 -12 -12 -12 -12 -11 -11 -12 -12 -12 -13 -13 -13 -13 -13 -13 -14
-11 -12 -12 -12 -12 -12 -11 -11 -11 -11 -10 -10 -10 -10 -10 -11 -12 -11 -13 -13 -15 -15 -14 -14 -13 -13 -12 -12 -12 -12 -12 -12 -12 -12 -13 -13 -13 -13 -14 -14 -14 -14 -15 -15
-11 -12 -12 -12 -11 -11 -10 -11 -11 -10 -10 -10 -11 -11 -11 -11 -12 -14 -14 -15 -15 -14 -14 -13 -13 -13 -13 -12 -12 -13 -13 -13 -13 -14 -14 -14 -14 -15 -15 -15 -15 -15 -16 -16

GFSNW_700_temp_273.txt.gz
Temp
-9 -9 -9 -9 -9 -9 -9 -9 -9 -7 -7 -5 -4 -3 -1 -1 0 -0 1 2 3 3 3 3 4 4 5 6 6 5 4 3 3 3 3 3 2 2 3 3 -0 -0 -2 2
-11 -10 -11 -10 -9 -11 -11 -10 -9 -8 -7 -6 -4 -3 -3 -3 -2 -2 -0 1 1 2 2 2 2 3 4 5 5 5 5 2 2 0 0 1 1 3 2 2 2 1 -2 3
-11 -12 -12 -11 -11 -11 -11 -11 -10 -8 -7 -6 -5 -4 -4 -4 -3 -2 -3 -1 -1 -1 -1 1 2 2 3 4 4 4 3 3 4 3 5 4 2 4 3 1 0 2 1 4
-10 -11 -11 -12 -12 -11 -12 -11 -11 -10 -9 -8 -6 -6 -6 -5 -4 -3 -3 -3 -2 -2 -3 -2 1 1 2 3 3 3 1 2 2 3 4 4 4 4 4 2 3 1 5 3
-10 -11 -11 -12 -12 -12 -13 -12 -12 -11 -10 -9 -9 -8 -8 -7 -6 -5 -4 -4 -3 -2 -1 -1 -2 0 1 1 2 2 1 0 1 2 2 2 2 1 2 3 2 2 2 3
-10 -11 -11 -12 -12 -13 -12 -12 -12 -11 -10 -10 -10 -9 -8 -8 -8 -7 -5 -4 -4 -4 -2 -2 -2 -3 -2 -1 -1 -0 0 -0 -1 0 1 1 -1 1 2 3 3 4 2 6
-11 -12 -12 -12 -12 -13 -13 -12 -12 -12 -11 -11 -11 -10 -10 -9 -8 -8 -6 -6 -5 -3 -4 -3 -3 -3 -2 -2 -2 -2 -1 -1 -1 -0 -1 -3 1 1 3 3 3 3 3 4
-11 -11 -12 -12 -12 -12 -13 -12 -13 -12 -12 -11 -10 -10 -10 -9 -9 -8 -7 -6 -6 -5 -5 -4 -4 -4 -3 -3 -3 -3 -2 -2 -2 -2 -3 0 0 1 3 3 4 4 4 3
-11 -12 -12 -12 -12 -12 -13 -13 -13 -13 -13 -12 -11 -11 -10 -10 -9 -8 -6 -6 -6 -5 -5 -4 -4 -3 -3 -3 -2 -2 -3 -3 -3 -3 -3 -2 1 2 2 1 1 4 4 4
-11 -12 -12 -12 -12 -12 -12 -13 -13 -13 -13 -11 -12 -11 -11 -11 -10 -9 -8 -6 -7 -6 -5 -4 -4 -3 -3 -3 -2 -2 -4 -4 -4 -4 -3 -1 1 0 2 0 3 3 3 2
-11 -11 -12 -12 -12 -12 -13 -12 -13 -13 -13 -13 -12 -12 -11 -10 -10 -10 -9 -8 -7 -6 -6 -5 -4 -4 -3 -3 -3 -2 -2 -4 -4 -4 -3 -2 -1 0 0 2 2 2 1 1
-11 -11 -12 -12 -12 -12 -12 -12 -13 -13 -13 -13 -12 -11 -11 -10 -9 -10 -10 -9 -8 -6 -7 -5 -4 -4 -3 -3 -3 -2 -2 -1 -1 -2 -2 -0 0 1 1 1 2 1 1 0
-12 -12 -12 -12 -12 -12 -12 -12 -12 -13 -13 -13 -12 -10 -10 -11 -9 -9 -10 -8 -7 -6 -7 -7 -7 -4 -4 -4 -3 -2 -2 -1 -1 -2 -2 -1 0 0 0 1 1 0 -0 -1
-12 -12 -12 -12 -12 -12 -11 -12 -12 -13 -13 -13 -12 -11 -10 -10 -9 -9 -9 -8 -9 -8 -9 -8 -8 -7 -5 -4 -3 -2 -2 -1 -1 -1 -1 -1 -0 0 -1 -0 -0 -1 -1 -2
-12 -12 -11 -11 -12 -11 -12 -12 -12 -12 -14 -13 -11 -10 -10 -9 -9 -9 -9 -9 -8 -8 -8 -8 -7 -7 -6 -4 -3 -2 -2 -2 -1 -1 -0 -1 -1 -1 -1 -1 -1 -2 -2 -2
-13 -13 -13 -12 -12 -12 -12 -11 -12 -12 -12 -12 -12 -9 -8 -8 -8 -8 -8 -8 -9 -8 -8 -7 -6 -4 -6 -4 -4 -3 -2 -2 -1 -1 -1 -1 -1 -2 -2 -2 -2 -2 -3 -3
-13 -13 -13 -13 -13 -13 -13 -12 -12 -12 -12 -12 -12 -10 -9 -8 -8 -8 -7 -8 -8 -8 -8 -8 -5 -5 -6 -5 -4 -4 -3 -3 -3 -2 -2 -3 -3 -2 -2 -3 -3 -3 -3 -4
-13 -13 -13 -13 -13 -13 -12 -12 -13 -12 -12 -12 -11 -10 -9 -9 -7 -8 -8 -8 -8 -8 -8 -7 -5 -6 -6 -5 -5 -5 -4 -4 -3 -3 -3 -3 -3 -3 -3 -3 -4 -4 -4 -5
-12 -12 -12 -12 -12 -12 -12 -12 -12 -12 -11 -11 -10 -10 -10 -8 -8 -9 -9 -9 -8 -8 -8 -7 -7 -6 -5 -5 -5 -5 -5 -4 -4 -4 -4 -4 -5 -5 -4 -5 -5 -5 -5 -6
-11 -12 -11 -11 -12 -12 -12 -11 -11 -10 -10 -10 -11 -11 -10 -10 -10 -10 -9 -8 -8 -7 -7 -6 -6 -5 -6 -6 -6 -5 -5 -4 -5 -5 -5 -5 -5 -5 -5 -6 -6 -6 -9 -9
-11 -12 -12 -12 -12 -12 -12 -11 -11 -11 -11 -11 -11 -11 -10 -10 -10 -10 -9 -8 -8 -8 -8 -7 -8 -10 -10 -8 -7 -6 -6 -5 -5 -5 -5 -5 -6 -6 -6 -6 -9 -10 -10 -10
-11 -11 -11 -11 -11 -11 -11 -11 -11 -11 -11 -11 -11 -11 -11 -11 -11 -10 -10 -9 -9 -10 -10 -8 -12 -13 -13 -12 -10 -10 -9 -8 -7 -7 -7 -7 -7 -9 -9 -10 -11 -11 -11 -10
-10 -11 -12 -12 -12 -12 -12 -12 -12 -12 -12 -12 -12 -11 -12 -11 -11 -10 -10 -10 -10 -11 -12 -15 -16 -15 -14 -13 -12 -11 -10 -10 -10 -9 -10 -10 -11 -11 -11 -11 -11 -11 -11 -12
-10 -11 -12 -12 -13 -13 -14 -13 -13 -12 -12 -12 -12 -12 -12 -11 -11 -11 -11 -11 -11 -13 -15 -17 -16 -15 -14 -14 -13 -13 -12 -12 -11 -11 -12 -12 -12 -12 -12 -12 -12 -13 -14 -13
-11 -11 -12 -13 -13 -12 -12 -12 -12 -12 -11 -11 -11 -11 -11 -11 -11 -12 -12 -13 -15 -17 -18 -17 -16 -15 -15 -14 -13 -13 -13 -13 -12 -12 -12 -12 -12 -12 -12 -13 -13 -14 -14 -14
-11 -12 -12 -12 -11 -11 -10 -11 -11 -11 -11 -11 -11 -11 -11 -12 -13 -14 -15 -15 -17 -17 -16 -16 -16 -16 -15 -14 -14 -14 -13 -13 -13 -13 -13 -13 -13 -14 -14 -15 -15 -15 -15 -15
-11 -12 -11 -11 -11 -11 -10 -10 -10 -10 -10 -11 -11 -12 -12 -13 -13 -16 -16 -18 -17 -16 -15 -15 -15 -15 -14 -14 -14 -14 -14 -13 -13 -13 -14 -14 -15 -15 -15 -15 -16 -16 -16 -16

GFSNW_700_temp_276.txt.gz
Temp
-9 -10 -11 -11 -11 -10 -9 -9 -8 -7 -8 -6 -7 -6 -6 -4 -3 -3 -2 -2 -1 -0 3 3 3 3 4 5 4 5 3 2 2 2 2 2 1 1 2 3 3 0 0 4
-10 -11 -11 -11 -12 -12 -12 -10 -9 -8 -8 -8 -7 -6 -5 -6 -5 -4 -4 -4 -4 -2 -1 1 2 3 3 3 4 4 4 1 2 1 -0 0 1 2 2 2 2 1 3 6
-11 -11 -11 -11 -12 -12 -12 -12 -11 -9 -8 -9 -9 -9 -9 -8 -6 -5 -5 -4 -4 -4 -4 -3 -0 1 1 2 2 3 3 3 3 4 5 4 2 4 3 1 1 2 2 4
-11 -11 -12 -11 -11 -12 -12 -12 -12 -12 -10 -9 -10 -11 -9 -9 -8 -6 -5 -5 -5 -4 -4 -4 -4 -2 -1 0 1 2 1 2 2 3 4 4 3 4 4 2 4 2 3 3
-11 -12 -12 -12 -12 -12 -13 -13 -12 -12 -11 -11 -12 -10 -10 -9 -8 -9 -7 -7 -6 -5 -5 -4 -3 -3 -2 -1 -1 1 1 0 0 1 2 2 2 2 1 2 3 3 2 4
-11 -12 -12 -12 -12 -12 -12 -12 -12 -13 -11 -10 -12 -12 -11 -10 -11 -10 -9 -9 -8 -6 -5 -5 -4 -4 -3 -3 -3 -2 -0 -0 -1 -1 0 -1 -1 1 1 2 3 3 3 5
-11 -12 -11 -12 -12 -12 -13 -12 -13 -12 -11 -11 -11 -12 -12 -12 -12 -11 -10 -9 -8 -7 -7 -6 -5 -4 -4 -4 -3 -3 -2 -2 -2 -2 -2 -1 2 3 2 2 2 3 3 5
-11 -11 -11 -11 -12 -12 -12 -12 -13 -12 -12 -11 -10 -11 -11 -11 -12 -11 -10 -9 -9 -8 -7 -5 -5 -5 -4 -4 -4 -3 -3 -2 -3 -3 -2 -0 0 0 1 2 3 3 3 3
-11 -11 -11 -11 -12 -12 -12 -12 -13 -13 -12 -11 -11 -11 -11 -11 -11 -11 -9 -9 -8 -8 -8 -6 -4 -4 -4 -4 -4 -4 -3 -3 -4 -4 -2 -0 1 2 1 1 0 2 3 3
-12 -12 -11 -11 -11 -12 -12 -12 -12 -13 -13 -11 -12 -12 -12 -12 -13 -12 -11 -10 -9 -8 -8 -8 -7 -4 -3 -4 -3 -3 -4 -4 -4 -4 -3 -2 -0 0 1 -0 2 2 3 3
-12 -12 -11 -11 -12 -12 -12 -12 -12 -13 -13 -11 -12 -12 -12 -12 -12 -13 -11 -12 -9 -8 -8 -7 -6 -5 -4 -4 -3 -2 -3 -5 -5 -4 -4 -2 -1 -0 -0 1 1 2 1 1
-13 -12 -12 -12 -12 -12 -12 -12 -12 -12 -13 -11 -11 -11 -11 -12 -12 -12 -12 -12 -11 -10 -9 -7 -8 -8 -8 -5 -4 -3 -3 -2 -3 -3 -2 0 -0 -0 0 0 0 -0 -0 0
-13 -12 -12 -12 -12 -12 -12 -12 -12 -12 -12 -12 -11 -10 -11 -12 -11 -12 -12 -11 -10 -9 -9 -9 -9 -8 -8 -8 -7 -5 -4 -3 -3 -2 -2 -1 -0 -1 -0 -1 -2 0 -0 -0
-13 -13 -13 -12 -11 -11 -12 -12 -12 -12 -12 -12 -10 -11 -10 -10 -11 -11 -12 -11 -11 -11 -10 -10 -9 -8 -8 -8 -7 -6 -6 -5 -3 -2 -2 -2 -1 -2 -2 -3 -3 -3 -1 -0
-12 -13 -12 -12 -12 -12 -12 -11 -12 -12 -12 -12 -11 -10 -10 -10 -11 -11 -10 -10 -10 -10 -10 -10 -9 -9 -9 -8 -8 -6 -5 -4 -4 -3 -2 -2 -3 -2 -2 -2 -2 -2 -1 -1
-12 -12 -13 -12 -12 -13 -13 -12 -12 -12 -12 -13 -12 -10 -10 -10 -9 -9 -9 -9 -10 -10 -10 -9 -10 -8 -9 -8 -7 -5 -6 -5 -5 -4 -3 -3 -3 -3 -3 -2 -2 -2 -2 -2
-11 -12 -12 -12 -12 -12 -12 -13 -12 -13 -13 -13 -13 -12 -10 -9 -10 -9 -9 -9 -9 -10 -10 -10 -8 -9 -8 -7 -7 -7 -6 -6 -4 -4 -4 -3 -3 -3 -3 -3 -3 -2 -2 -3
-11 -11 -11 -11 -12 -12 -12 -13 -13 -13 -13 -13 -13 -11 -11 -10 -9 -9 -9 -9 -9 -9 -10 -9 -9 -9 -9 -8 -8 -8 -7 -6 -5 -4 -4 -4 -3 -4 -4 -4 -4 -3 -3 -3
-10 -11 -11 -11 -12 -11 -11 -12 -12 -12 -13 -13 -12 -11 -11 -10 -10 -10 -10 -10 -9 -9 -9 -8 -9 -9 -7 -7 -7 -7 -7 -6 -6 -5 -4 -4 -4 -4 -4 -4 -4 -4 -4 -5
-10 -10 -10 -12 -12 -12 -12 -12 -12 -12 -12 -11 -12 -11 -11 -11 -11 -11 -11 -10 -10 -9 -9 -8 -9 -11 -11 -9 -8 -8 -7 -6 -5 -5 -5 -4 -4 -4 -5 -5 -4 -5 -5 -6
-9 -10 -11 -11 -11 -11 -12 -12 -12 -11 -11 -11 -12 -12 -11 -11 -11 -11 -11 -10 -10 -10 -10 -10 -14 -16 -14 -13 -12 -11 -10 -8 -8 -6 -6 -5 -5 -5 -5 -5 -6 -7 -8 -9
-9 -10 -10 -11 -11 -11 -11 -11 -12 -12 -12 -12 -12 -12 -12 -11 -12 -12 -11 -11 -11 -11 -12 -13 -17 -17 -16 -14 -13 -11 -10 -10 -10 -9 -9 -8 -8 -7 -8 -8 -9 -11 -11 -11
-9 -10 -11 -11 -11 -11 -13 -13 -13 -14 -13 -13 -12 -12 -13 -12 -12 -12 -11 -11 -12 -12 -15 -17 -18 -17 -16 -15 -14 -13 -12 -12 -11 -10 -10 -10 -9 -10 -11 -12 -12 -12 -12 -12
-9 -10 -11 -11 -11 -12 -13 -13 -14 -14 -13 -12 -12 -12 -13 -13 -12 -12 -12 -13 -13 -15 -17 -18 -17 -16 -16 -16 -15 -14 -14 -13 -13 -13 -13 -13 -13 -13 -13 -13 -13 -13 -12 -12
-10 -11 -11 -11 -12 -12 -11 -11 -11 -12 -12 -12 -12 -12 -12 -13 -13 -13 -13 -14 -17 -18 -19 -18 -17 -16 -16 -16 -15 -15 -15 -14 -14 -14 -14 -13 -13 -13 -13 -13 -13 -13 -13 -14
-11 -11 -11 -11 -11 -10 -10 -10 -10 -11 -11 -11 -12 -12 -12 -13 -15 -15 -17 -17 -18 -18 -18 -17 -17 -16 -16 -16 -15 -15 -15 -14 -14 -14 -14 -14 -13 -13 -13 -13 -14 -14 -15 -15
-11 -12 -12 -11 -11 -11 -10 -10 -10 -10 -10 -10 -11 -12 -13 -14 -14 -16 -17 -18 -18 -17 -17 -17 -16 -16 -16 -16 -15 -15 -15 -15 -14 -14 -14 -15 -15 -15 -15 -15 -15 -16 -16 -16

GFSNW_700_temp_279.txt.gz
Temp
-11 -10 -11 -11 -11 -11 -11 -11 -10 -9 -9 -9 -9 -9 -8 -7 -7 -5 -5 -4 -4 -2 -1 -1 -0 0 2 4 4 2 4 3 3 2 1 2 1 1 2 4 5 3 3 5
-11 -11 -11 -11 -11 -12 -12 -12 -11 -10 -10 -11 -9 -9 -9 -9 -8 -7 -5 -5 -4 -3 -3 -3 -1 -1 -0 1 2 3 2 1 3 0 -0 -0 -0 1 2 2 4 3 4 6
-11 -11 -11 -11 -12 -12 -12 -12 -12 -11 -12 -11 -11 -10 -10 -9 -9 -8 -8 -6 -5 -4 -4 -4 -2 -1 -1 1 -0 -0 0 2 3 4 5 4 0 2 3 2 2 2 3 4
-11 -11 -11 -11 -11 -12 -12 -12 -12 -13 -11 -11 -11 -11 -11 -10 -10 -9 -9 -8 -7 -8 -5 -4 -4 -3 -1 0 -1 -2 -2 1 2 2 3 3 3 3 3 0 3 2 4 4
-11 -11 -11 -11 -11 -11 -12 -12 -12 -12 -11 -11 -12 -11 -12 -11 -10 -11 -10 -9 -10 -9 -8 -7 -6 -4 -3 -3 -3 -3 -3 -2 -0 0 1 1 2 3 2 1 0 0 1 3
-12 -11 -12 -11 -11 -11 -12 -11 -12 -12 -11 -11 -12 -12 -11 -11 -11 -11 -11 -11 -11 -10 -9 -8 -7 -6 -4 -4 -3 -3 -3 -3 -2 -1 0 -1 -1 1 2 1 2 2 2 4
-12 -12 -12 -12 -11 -11 -11 -11 -12 -12 -12 -12 -12 -12 -12 -12 -12 -12 -11 -11 -11 -10 -10 -9 -7 -6 -5 -5 -4 -3 -4 -4 -3 -2 -1 -2 1 2 2 2 3 2 3 3
-13 -12 -12 -12 -12 -11 -11 -11 -12 -12 -12 -12 -12 -12 -12 -12 -12 -12 -12 -11 -11 -10 -9 -9 -8 -5 -5 -5 -4 -4 -3 -4 -4 -3 -2 -0 1 1 1 2 3 3 3 3
-13 -13 -12 -12 -12 -11 -11 -11 -12 -12 -12 -11 -12 -12 -12 -13 -12 -12 -12 -11 -11 -10 -9 -8 -8 -5 -4 -4 -4 -5 -5 -4 -3 -3 -2 -1 1 1 1 1 -0 1 2 3
-12 -12 -12 -12 -12 -11 -11 -11 -11 -11 -12 -11 -11 -11 -12 -13 -13 -13 -13 -12 -11 -10 -9 -9 -8 -7 -6 -4 -4 -5 -4 -4 -4 -4 -3 -1 0 0 1 -0 1 1 2 2
-12 -12 -12 -12 -12 -12 -12 -11 -11 -12 -12 -11 -11 -11 -12 -12 -12 -12 -12 -13 -11 -10 -9 -9 -7 -7 -7 -8 -5 -4 -4 -5 -5 -4 -4 -2 0 -0 -1 1 0 0 1 0
-12 -12 -12 -12 -12 -12 -12 -11 -12 -12 -12 -11 -11 -11 -11 -11 -12 -12 -12 -13 -12 -12 -11 -10 -11 -10 -9 -8 -8 -7 -5 -4 -4 -4 -3 -0 -1 -1 -1 -0 -0 -1 -2 -1
-12 -12 -12 -12 -12 -12 -11 -11 -12 -12 -12 -11 -10 -9 -11 -10 -11 -12 -12 -11 -11 -11 -11 -12 -11 -10 -9 -9 -8 -8 -7 -6 -6 -6 -3 -2 -1 -1 -1 -2 -2 -3 -2 -2
-12 -12 -11 -12 -12 -12 -12 -12 -11 -12 -12 -12 -10 -11 -10 -10 -11 -11 -11 -11 -11 -11 -11 -11 -11 -11 -9 -8 -8 -8 -8 -8 -7 -6 -4 -3 -3 -2 -2 -3 -3 -3 -3 -3
-11 -11 -11 -11 -12 -12 -12 -12 -12 -12 -12 -12 -11 -10 -10 -10 -10 -10 -11 -11 -11 -11 -12 -11 -11 -10 -10 -9 -9 -6 -8 -7 -8 -6 -6 -6 -4 -4 -4 -3 -3 -4 -4 -3
-10 -10 -11 -11 -12 -12 -12 -12 -12 -12 -12 -12 -12 -10 -9 -10 -10 -11 -11 -11 -10 -11 -11 -10 -10 -9 -10 -10 -9 -8 -8 -7 -7 -6 -6 -5 -5 -4 -4 -3 -3 -4 -3 -3
-9 -9 -10 -11 -11 -11 -12 -13 -13 -13 -13 -13 -12 -10 -9 -10 -10 -10 -10 -10 -10 -10 -10 -10 -9 -10 -9 -9 -10 -8 -8 -7 -7 -7 -6 -5 -5 -5 -4 -4 -4 -4 -3 -3
-9 -9 -9 -10 -11 -11 -11 -12 -12 -13 -13 -13 -13 -12 -11 -11 -10 -10 -11 -10 -10 -10 -9 -10 -10 -10 -10 -10 -10 -9 -8 -7 -7 -7 -7 -6 -4 -5 -5 -4 -4 -4 -4 -4
-8 -8 -9 -10 -11 -11 -12 -12 -12 -12 -13 -13 -12 -12 -12 -11 -11 -11 -11 -11 -11 -10 -10 -10 -10 -10 -11 -12 -9 -9 -8 -8 -7 -7 -7 -6 -5 -6 -5 -4 -5 -4 -4 -5
-8 -8 -8 -10 -10 -10 -10 -11 -11 -12 -12 -12 -12 -12 -12 -12 -12 -11 -12 -11 -10 -9 -11 -10 -11 -16 -17 -16 -13 -11 -11 -10 -9 -8 -7 -7 -7 -7 -6 -5 -4 -5 -5 -5
-7 -7 -8 -9 -9 -10 -11 -11 -12 -12 -12 -12 -12 -12 -12 -12 -13 -12 -12 -11 -10 -11 -12 -12 -16 -17 -16 -15 -14 -13 -12 -11 -9 -9 -9 -9 -8 -8 -7 -7 -6 -6 -6 -7
-8 -8 -8 -9 -10 -10 -11 -12 -12 -12 -13 -13 -13 -12 -13 -12 -13 -13 -12 -12 -12 -13 -14 -15 -17 -17 -17 -16 -15 -14 -13 -12 -11 -10 -10 -10 -9 -9 -9 -9 -10 -10 -10 -10
-9 -9 -9 -10 -10 -11 -12 -13 -13 -14 -14 -13 -13 -13 -12 -13 -13 -13 -12 -13 -13 -14 -16 -18 -19 -18 -17 -17 -16 -16 -15 -14 -13 -12 -12 -12 -12 -11 -12 -12 -12 -13 -12 -12
-9 -9 -10 -11 -11 -12 -13 -12 -12 -12 -12 -12 -12 -13 -13 -14 -13 -13 -14 -14 -15 -16 -18 -19 -18 -18 -18 -17 -17 -16 -16 -15 -15 -14 -14 -14 -14 -14 -14 -14 -14 -14 -13 -13
-10 -10 -10 -11 -12 -12 -12 -11 -11 -11 -11 -12 -12 -13 -14 -14 -14 -14 -15 -15 -17 -18 -19 -19 -18 -18 -18 -17 -17 -16 -16 -16 -15 -15 -15 -15 -15 -14 -14 -14 -14 -14 -14 -14
-10 -10 -11 -11 -11 -11 -11 -11 -11 -10 -10 -11 -12 -13 -13 -13 -15 -15 -17 -17 -18 -19 -18 -18 -18 -18 -18 -17 -17 -16 -16 -16 -16 -15 -15 -15 -15 -15 -15 -15 -14 -14 -14 -14
-10 -11 -11 -12 -12 -12 -11 -11 -11 -11 -11 -10 -11 -13 -14 -14 -15 -17 -17 -18 -18 -18 -18 -18 -17 -17 -17 -17 -17 -17 -16 -16 -16 -16 -16 -16 -15 -15 -15 -15 -15 -16 -16 -16

GFSNW_700_temp_285.txt.gz
Temp
-9 -9 -9 -10 -10 -11 -11 -11 -11 -9 -10 -10 -10 -11 -11 -11 -11 -10 -10 -10 -10 -10 -10 -10 -7 -5 -5 -4 -2 -0 0 0 -1 0 0 1 1 1 1 2 0 2 3 3
-9 -9 -9 -11 -11 -12 -12 -11 -11 -10 -11 -11 -10 -10 -11 -11 -11 -11 -11 -11 -11 -10 -11 -10 -8 -7 -7 -5 -2 -1 0 -1 -2 -2 -1 -0 0 1 1 2 2 2 0 3
-9 -10 -10 -10 -11 -12 -12 -12 -12 -11 -11 -11 -11 -11 -11 -11 -11 -11 -11 -11 -11 -11 -10 -10 -10 -9 -8 -8 -4 -1 -1 -1 -1 -1 -0 1 -0 1 1 1 1 2 2 4
-9 -10 -10 -11 -11 -11 -12 -11 -11 -12 -11 -11 -11 -11 -11 -11 -11 -12 -11 -11 -11 -12 -12 -11 -10 -8 -7 -7 -5 -4 -3 -1 -0 -2 -2 -1 -1 1 1 0 2 1 2 2
-9 -10 -11 -11 -11 -11 -11 -12 -12 -11 -11 -11 -11 -11 -11 -11 -12 -12 -12 -12 -11 -12 -12 -12 -11 -10 -7 -10 -6 -7 -4 -3 -2 -2 -1 -1 -2 -1 -1 0 1 -0 1 2
-9 -10 -10 -11 -11 -12 -11 -12 -12 -12 -11 -11 -12 -11 -11 -12 -12 -12 -12 -12 -12 -12 -12 -12 -11 -9 -7 -8 -8 -7 -7 -4 -3 -3 -3 -3 -3 -1 -1 -0 -0 0 -0 2
-9 -10 -10 -10 -11 -12 -12 -12 -12 -12 -11 -12 -11 -11 -11 -12 -11 -12 -12 -12 -12 -11 -11 -11 -9 -7 -6 -6 -5 -6 -6 -5 -4 -3 -3 -3 -2 1 1 1 2 1 1 2
-9 -10 -10 -10 -11 -11 -12 -12 -12 -12 -12 -12 -11 -11 -12 -11 -11 -12 -12 -11 -12 -12 -11 -11 -9 -7 -7 -7 -7 -6 -6 -6 -4 -3 -3 -1 -1 0 1 0 2 1 1 2
-9 -9 -10 -10 -11 -11 -11 -12 -12 -12 -12 -12 -11 -11 -12 -11 -11 -11 -11 -11 -11 -11 -11 -11 -10 -9 -8 -7 -6 -7 -6 -6 -5 -4 -3 -3 -1 -0 1 -1 0 2 1 1
-9 -9 -9 -10 -10 -11 -11 -12 -12 -12 -12 -11 -11 -11 -11 -11 -12 -11 -12 -12 -11 -12 -12 -12 -11 -9 -9 -9 -8 -8 -7 -6 -6 -5 -4 -3 -3 -1 -1 -1 -2 -0 1 1
-9 -9 -9 -9 -10 -11 -11 -11 -13 -12 -12 -11 -11 -11 -11 -11 -12 -12 -12 -12 -12 -12 -12 -12 -12 -11 -11 -10 -9 -9 -9 -9 -7 -6 -5 -4 -5 -4 -4 -5 -3 -1 -1 -0
-9 -8 -8 -8 -9 -10 -11 -11 -12 -12 -12 -11 -11 -10 -11 -11 -11 -12 -12 -12 -12 -13 -13 -12 -12 -12 -11 -11 -10 -9 -9 -9 -9 -9 -8 -8 -7 -7 -7 -5 -4 -3 -3 -2
-8 -8 -8 -8 -8 -9 -10 -11 -11 -12 -12 -11 -11 -10 -11 -11 -11 -12 -12 -11 -12 -12 -12 -13 -13 -12 -12 -12 -11 -11 -10 -10 -10 -9 -9 -8 -9 -8 -8 -7 -6 -5 -4 -4
-8 -8 -8 -7 -8 -9 -10 -10 -11 -11 -12 -11 -11 -11 -11 -10 -11 -11 -11 -12 -12 -13 -13 -13 -13 -13 -12 -12 -11 -11 -11 -10 -9 -9 -9 -8 -8 -8 -8 -8 -7 -7 -5 -5
-8 -8 -8 -7 -8 -9 -9 -10 -11 -11 -12 -11 -11 -11 -11 -11 -11 -12 -11 -11 -12 -12 -12 -12 -13 -12 -13 -11 -12 -11 -12 -11 -11 -9 -9 -9 -8 -8 -8 -8 -8 -8 -7 -5
-8 -8 -8 -8 -8 -8 -9 -10 -11 -11 -12 -12 -11 -11 -10 -11 -11 -11 -11 -11 -11 -12 -11 -12 -12 -11 -12 -12 -11 -11 -12 -13 -13 -11 -9 -9 -9 -9 -8 -8 -8 -8 -8 -7
-9 -8 -8 -8 -8 -8 -9 -10 -11 -11 -12 -12 -11 -10 -11 -11 -11 -11 -11 -11 -11 -11 -12 -11 -11 -12 -11 -11 -12 -13 -12 -12 -12 -12 -11 -10 -9 -9 -8 -8 -7 -7 -7 -7
-9 -9 -9 -8 -8 -9 -9 -9 -10 -11 -12 -12 -12 -11 -12 -12 -12 -12 -11 -11 -12 -11 -11 -11 -11 -12 -12 -13 -16 -15 -14 -13 -13 -13 -12 -11 -9 -9 -9 -7 -6 -7 -7 -7
-9 -9 -9 -8 -9 -9 -9 -9 -10 -11 -12 -13 -13 -13 -13 -12 -12 -12 -11 -12 -12 -11 -12 -12 -13 -16 -17 -18 -16 -15 -14 -13 -12 -11 -11 -10 -10 -9 -9 -8 -8 -7 -6 -7
-9 -8 -9 -9 -9 -9 -9 -9 -10 -11 -12 -12 -12 -13 -13 -13 -12 -12 -12 -12 -12 -12 -14 -14 -16 -19 -19 -18 -18 -17 -17 -16 -15 -13 -12 -13 -12 -10 -9 -9 -8 -8 -8 -7
-9 -9 -9 -9 -9 -9 -10 -10 -10 -11 -12 -12 -12 -13 -13 -13 -13 -13 -13 -13 -13 -13 -14 -15 -18 -19 -18 -18 -18 -17 -18 -18 -17 -17 -16 -15 -13 -12 -11 -10 -10 -9 -9 -10
-10 -10 -10 -9 -10 -10 -10 -11 -11 -12 -12 -12 -12 -13 -13 -13 -13 -14 -13 -13 -13 -15 -15 -16 -18 -19 -19 -18 -18 -17 -18 -18 -18 -18 -17 -16 -16 -15 -14 -14 -13 -11 -13 -13
-11 -11 -11 -10 -11 -11 -12 -13 -13 -12 -12 -12 -12 -12 -13 -14 -14 -14 -14 -14 -15 -16 -17 -18 -19 -19 -18 -18 -18 -18 -18 -18 -18 -18 -18 -17 -17 -17 -16 -16 -15 -16 -15 -15
-12 -11 -11 -11 -12 -13 -13 -13 -13 -13 -12 -12 -12 -13 -14 -14 -15 -15 -15 -16 -16 -17 -18 -19 -19 -18 -18 -18 -18 -18 -18 -18 -17 -17 -18 -17 -17 -17 -17 -17 -17 -17 -16 -16
-12 -12 -12 -13 -13 -13 -13 -13 -13 -13 -12 -12 -11 -13 -14 -14 -15 -15 -15 -16 -17 -18 -19 -19 -19 -18 -18 -18 -18 -18 -18 -18 -18 -17 -17 -17 -17 -18 -18 -18 -18 -18 -17 -16
-12 -13 -13 -13 -13 -13 -13 -13 -13 -13 -13 -12 -12 -13 -14 -14 -14 -15 -16 -17 -18 -18 -18 -19 -19 -18 -18 -18 -18 -18 -18 -18 -17 -17 -17 -18 -18 -18 -18 -18 -18 -17 -16 -17
-13 -13 -14 -14 -13 -13 -13 -13 -14 -13 -13 -13 -13 -13 -13 -14 -15 -16 -17 -18 -18 -18 -19 -19 -19 -18 -18 -18 -18 -18 -18 -18 -18 -18 -18 -18 -18 -18 -18 -18 -17 -17 -17 -17

GFSNW_700_temp_291.txt.gz
Temp
-7 -7 -8 -8 -8 -8 -8 -9 -10 -9 -9 -10 -11 -11 -12 -12 -12 -12 -12 -12 -12 -12 -12 -12 -12 -11 -11 -10 -11 -10 -9 -8 -4 -3 -2 -1 -0 1 0 0 -0 1 2 2
-7 -8 -8 -9 -9 -10 -9 -9 -9 -10 -10 -11 -11 -12 -12 -12 -12 -11 -12 -12 -12 -12 -13 -13 -12 -11 -11 -11 -11 -12 -10 -8 -6 -4 -4 -3 -1 0 1 1 2 0 -1 2
-8 -8 -8 -9 -9 -10 -10 -10 -11 -10 -10 -11 -12 -12 -12 -12 -12 -12 -12 -12 -12 -13 -12 -12 -13 -11 -11 -11 -10 -10 -10 -9 -8 -6 -1 -1 -2 -0 0 1 1 1 1 2
-8 -8 -8 -8 -9 -10 -11 -11 -12 -11 -11 -11 -11 -12 -12 -12 -12 -12 -12 -12 -12 -13 -13 -12 -12 -12 -11 -10 -10 -10 -11 -10 -8 -6 -3 -2 -1 -1 -1 0 1 1 1 1
-8 -8 -8 -8 -8 -9 -10 -12 -12 -11 -11 -11 -11 -12 -12 -12 -12 -12 -12 -12 -12 -12 -12 -13 -13 -12 -11 -11 -10 -10 -12 -10 -7 -6 -4 -2 -1 -1 -1 -1 -0 -0 1 1
-8 -8 -8 -8 -9 -10 -11 -11 -12 -11 -11 -12 -12 -12 -12 -12 -11 -12 -12 -12 -12 -12 -12 -12 -11 -11 -10 -10 -10 -11 -12 -10 -9 -5 -3 -3 -3 -2 -1 -0 -2 -1 -1 -2
-8 -8 -8 -8 -9 -9 -11 -11 -12 -12 -11 -12 -12 -12 -13 -12 -12 -12 -12 -12 -12 -12 -11 -11 -10 -10 -8 -8 -8 -9 -8 -9 -9 -7 -3 -3 -6 -3 -4 -4 -4 -4 -4 -3
-8 -8 -8 -8 -9 -9 -9 -9 -12 -12 -12 -12 -13 -12 -12 -11 -11 -12 -11 -11 -12 -12 -11 -11 -11 -11 -9 -9 -9 -9 -9 -9 -8 -6 -4 -5 -6 -7 -8 -5 -7 -6 -5 -4
-8 -8 -8 -9 -9 -9 -9 -9 -9 -11 -12 -11 -12 -12 -11 -11 -11 -10 -10 -11 -11 -12 -12 -12 -12 -11 -12 -11 -10 -10 -9 -9 -9 -8 -6 -7 -10 -7 -5 -6 -8 -7 -7 -5
-8 -8 -8 -9 -9 -9 -9 -9 -9 -10 -11 -11 -11 -12 -12 -11 -11 -11 -11 -11 -11 -12 -12 -12 -12 -12 -12 -12 -12 -11 -11 -10 -10 -9 -7 -9 -10 -8 -6 -9 -10 -9 -8 -7
-8 -8 -8 -8 -9 -9 -9 -9 -9 -10 -10 -11 -11 -12 -12 -11 -12 -12 -12 -11 -12 -13 -13 -13 -13 -12 -12 -12 -12 -11 -12 -11 -11 -10 -9 -11 -9 -8 -11 -11 -10 -9 -9 -8
-8 -8 -8 -8 -8 -9 -9 -9 -9 -9 -10 -10 -11 -11 -11 -11 -11 -12 -12 -12 -12 -12 -13 -13 -13 -13 -13 -13 -12 -12 -12 -13 -13 -12 -12 -12 -12 -11 -11 -10 -10 -10 -9 -8
-8 -8 -8 -9 -9 -9 -9 -10 -10 -9 -10 -10 -11 -10 -10 -11 -12 -12 -12 -12 -12 -12 -13 -12 -13 -13 -13 -13 -13 -13 -13 -13 -12 -11 -11 -10 -10 -11 -11 -10 -10 -9 -9 -8
-8 -8 -9 -9 -9 -9 -10 -10 -10 -10 -10 -10 -10 -10 -11 -11 -12 -12 -12 -12 -12 -12 -13 -12 -12 -12 -13 -13 -13 -14 -15 -14 -13 -12 -11 -11 -11 -11 -10 -9 -9 -9 -9 -8
-8 -9 -9 -9 -9 -10 -10 -10 -10 -10 -10 -10 -10 -11 -11 -11 -12 -12 -12 -12 -12 -13 -13 -13 -13 -12 -13 -13 -14 -14 -17 -16 -15 -14 -13 -12 -10 -10 -10 -9 -9 -9 -8 -7
-8 -9 -9 -10 -10 -10 -10 -10 -10 -10 -10 -10 -10 -10 -11 -11 -12 -12 -11 -12 -12 -12 -13 -13 -12 -13 -13 -13 -16 -18 -17 -17 -16 -15 -13 -12 -11 -10 -10 -9 -9 -9 -9 -8
-8 -9 -10 -10 -10 -11 -11 -11 -10 -10 -10 -11 -10 -11 -11 -11 -11 -11 -12 -12 -12 -12 -13 -12 -12 -13 -13 -16 -18 -18 -18 -17 -17 -16 -15 -13 -13 -11 -11 -10 -9 -9 -9 -8
-8 -9 -9 -10 -11 -11 -10 -10 -10 -10 -10 -11 -12 -12 -12 -11 -11 -12 -12 -12 -13 -12 -13 -13 -13 -14 -15 -17 -18 -19 -19 -18 -18 -18 -17 -15 -14 -14 -12 -11 -10 -9 -9 -8
-8 -8 -8 -9 -11 -11 -10 -10 -10 -11 -11 -11 -12 -13 -13 -12 -12 -12 -12 -13 -13 -14 -14 -14 -14 -15 -16 -18 -17 -18 -18 -18 -18 -19 -19 -18 -17 -16 -15 -14 -12 -11 -9 -9
-7 -7 -8 -10 -10 -10 -10 -11 -11 -11 -11 -12 -12 -13 -14 -12 -13 -13 -13 -13 -14 -14 -15 -16 -16 -19 -19 -18 -18 -18 -18 -18 -17 -17 -16 -17 -17 -17 -15 -15 -14 -13 -12 -11
-7 -8 -9 -11 -10 -11 -11 -11 -11 -12 -12 -12 -13 -13 -13 -13 -13 -14 -14 -14 -15 -15 -16 -16 -18 -18 -18 -18 -18 -18 -18 -18 -18 -18 -18 -18 -18 -18 -17 -17 -16 -15 -14 -13
-8 -9 -10 -10 -11 -11 -11 -12 -12 -13 -13 -13 -13 -13 -13 -13 -14 -14 -15 -15 -15 -15 -16 -17 -18 -19 -18 -18 -18 -18 -18 -18 -18 -18 -18 -18 -18 -18 -18 -18 -18 -17 -16 -16
-9 -10 -11 -11 -12 -12 -12 -13 -13 -14 -14 -14 -14 -13 -13 -13 -14 -15 -15 -16 -16 -16 -17 -17 -18 -18 -18 -18 -18 -18 -18 -18 -18 -18 -18 -18 -18 -19 -18 -18 -18 -18 -18 -18
-10 -11 -12 -12 -12 -13 -13 -14 -14 -14 -14 -14 -14 -14 -14 -14 -15 -15 -15 -16 -16 -17 -17 -18 -19 -19 -19 -18 -18 -18 -18 -18 -18 -18 -18 -19 -18 -18 -19 -18 -18 -18 -18 -18
-11 -12 -12 -13 -13 -13 -14 -15 -15 -15 -15 -15 -15 -14 -14 -15 -15 -16 -16 -17 -17 -18 -18 -19 -19 -19 -19 -19 -19 -19 -19 -19 -19 -19 -19 -19 -19 -19 -19 -19 -19 -18 -18 -18
-12 -12 -13 -13 -14 -14 -15 -15 -15 -15 -15 -15 -15 -15 -15 -17 -17 -17 -17 -18 -19 -20 -20 -20 -20 -20 -20 -20 -19 -19 -19 -19 -19 -19 -19 -19 -19 -19 -19 -19 -19 -19 -19 -19
-11 -12 -13 -14 -14 -15 -15 -15 -15 -16 -16 -16 -16 -16 -16 -17 -18 -19 -19 -20 -20 -20 -20 -20 -20 -20 -20 -20 -20 -20 -20 -20 -20 -20 -20 -20 -19 -19 -20 -20 -19 -19 -19 -19

GFSNW_700_temp_294.txt.gz
Temp
-8 -8 -7 -8 -7 -7 -7 -7 -8 -9 -10 -11 -11 -12 -12 -12 -11 -12 -12 -12 -12 -13 -13 -13 -12 -12 -12 -12 -12 -11 -11 -10 -8 -5 -3 -2 -2 -1 -1 -1 -3 -1 -2 1
-8 -8 -8 -8 -8 -8 -8 -8 -7 -9 -10 -12 -12 -11 -11 -12 -11 -11 -12 -12 -12 -13 -13 -13 -13 -12 -11 -11 -12 -12 -12 -10 -9 -5 -4 -3 -2 -1 -1 -1 -0 -1 -1 1
-7 -8 -8 -8 -8 -8 -8 -8 -10 -9 -10 -12 -12 -12 -11 -12 -12 -11 -12 -12 -12 -13 -12 -12 -13 -12 -12 -11 -11 -12 -12 -10 -9 -8 -6 -7 -6 -3 -2 -1 -1 -1 -0 1
-7 -8 -8 -8 -9 -9 -9 -9 -11 -12 -11 -11 -12 -13 -12 -13 -12 -12 -12 -12 -12 -13 -13 -12 -13 -13 -12 -11 -11 -12 -12 -11 -10 -8 -6 -6 -6 -6 -3 -3 -1 -0 0 0
-7 -8 -8 -8 -9 -9 -9 -11 -12 -12 -11 -11 -12 -13 -13 -12 -12 -13 -12 -13 -12 -12 -12 -13 -13 -13 -11 -13 -12 -13 -13 -12 -11 -7 -4 -4 -5 -4 -3 -4 -2 -1 -0 -0
-8 -8 -8 -8 -9 -9 -9 -10 -10 -11 -11 -12 -12 -13 -13 -12 -12 -11 -12 -13 -12 -11 -12 -11 -11 -12 -11 -11 -11 -11 -13 -12 -11 -8 -5 -5 -5 -8 -5 -6 -6 -5 -4 -3
-8 -8 -8 -8 -9 -9 -9 -10 -10 -11 -10 -12 -12 -12 -12 -11 -12 -11 -11 -12 -12 -12 -11 -10 -10 -11 -11 -10 -10 -11 -10 -11 -11 -9 -6 -5 -9 -9 -9 -9 -10 -9 -8 -6
-8 -8 -8 -8 -9 -9 -9 -9 -10 -10 -10 -12 -11 -11 -11 -11 -10 -10 -11 -11 -12 -12 -11 -11 -11 -11 -11 -11 -11 -11 -10 -11 -11 -8 -7 -9 -10 -11 -12 -10 -10 -10 -9 -7
-8 -8 -8 -8 -9 -9 -9 -9 -10 -10 -10 -11 -11 -11 -11 -11 -10 -10 -10 -11 -11 -11 -12 -12 -12 -12 -12 -11 -10 -11 -11 -11 -10 -9 -9 -9 -14 -10 -8 -10 -10 -10 -10 -9
-7 -8 -8 -9 -9 -9 -9 -9 -10 -10 -10 -11 -11 -11 -12 -11 -11 -11 -11 -11 -11 -11 -12 -12 -13 -13 -12 -12 -13 -12 -11 -11 -12 -11 -9 -12 -13 -11 -9 -12 -13 -11 -10 -10
-7 -8 -8 -9 -9 -9 -10 -10 -10 -10 -10 -10 -11 -11 -12 -11 -12 -12 -12 -12 -12 -12 -12 -13 -13 -13 -12 -13 -13 -13 -13 -13 -14 -13 -12 -13 -13 -11 -13 -14 -12 -11 -10 -10
-7 -8 -8 -9 -9 -9 -10 -10 -10 -10 -10 -10 -10 -11 -11 -11 -12 -12 -12 -12 -12 -12 -12 -12 -12 -13 -12 -13 -13 -13 -13 -15 -15 -15 -14 -14 -15 -13 -13 -13 -12 -11 -11 -10
-8 -8 -8 -9 -9 -10 -10 -10 -10 -10 -9 -10 -10 -10 -11 -11 -12 -13 -13 -13 -12 -12 -13 -13 -13 -13 -13 -13 -13 -14 -14 -14 -14 -12 -12 -12 -12 -13 -14 -12 -11 -10 -10 -10
-8 -8 -8 -9 -10 -10 -11 -11 -10 -10 -10 -10 -10 -10 -11 -11 -12 -13 -13 -13 -13 -12 -13 -13 -13 -13 -13 -13 -14 -15 -15 -14 -14 -13 -12 -11 -12 -13 -10 -9 -10 -10 -10 -10
-8 -8 -8 -9 -10 -10 -11 -10 -10 -10 -10 -10 -10 -10 -11 -12 -13 -13 -12 -12 -12 -12 -13 -13 -13 -13 -13 -13 -14 -14 -16 -16 -16 -16 -15 -14 -12 -11 -10 -9 -9 -9 -8 -9
-7 -8 -8 -8 -9 -10 -11 -10 -10 -10 -10 -10 -10 -11 -11 -12 -12 -12 -12 -13 -12 -13 -13 -13 -13 -13 -13 -14 -15 -17 -17 -17 -17 -16 -15 -15 -14 -13 -13 -11 -9 -9 -8 -8
-7 -7 -7 -7 -8 -10 -11 -11 -11 -11 -11 -11 -10 -11 -11 -11 -11 -12 -12 -13 -12 -13 -13 -13 -13 -14 -14 -15 -16 -16 -16 -16 -17 -16 -15 -14 -14 -13 -13 -12 -12 -11 -10 -9
-7 -6 -6 -7 -8 -10 -10 -10 -10 -10 -11 -11 -11 -12 -11 -11 -11 -12 -12 -13 -13 -13 -13 -14 -14 -15 -15 -17 -18 -18 -17 -17 -17 -17 -17 -17 -16 -16 -16 -15 -13 -12 -11 -11
-7 -7 -7 -8 -9 -9 -10 -10 -10 -10 -11 -11 -12 -13 -13 -12 -12 -12 -13 -13 -14 -14 -14 -15 -15 -16 -17 -18 -18 -18 -18 -18 -17 -18 -18 -18 -17 -16 -17 -16 -16 -14 -13 -12
-7 -7 -7 -9 -10 -10 -10 -11 -11 -11 -12 -12 -13 -13 -14 -13 -12 -13 -14 -14 -15 -15 -15 -16 -17 -18 -18 -18 -18 -18 -18 -18 -18 -18 -17 -17 -17 -17 -17 -17 -16 -16 -15 -15
-7 -7 -9 -10 -11 -11 -11 -11 -12 -12 -12 -13 -13 -13 -14 -13 -13 -13 -14 -15 -15 -16 -16 -17 -18 -19 -19 -19 -19 -19 -19 -19 -19 -19 -19 -19 -19 -18 -18 -18 -18 -18 -17 -16
-8 -8 -8 -10 -11 -11 -12 -12 -12 -13 -13 -14 -14 -14 -14 -14 -14 -14 -15 -16 -16 -16 -17 -17 -18 -19 -19 -19 -19 -19 -19 -19 -19 -19 -18 -19 -19 -19 -19 -18 -18 -18 -18 -18
-8 -9 -10 -11 -12 -12 -12 -13 -13 -14 -14 -14 -14 -14 -15 -14 -15 -15 -16 -16 -16 -17 -17 -18 -19 -19 -19 -19 -19 -19 -19 -19 -19 -19 -19 -19 -19 -19 -19 -19 -19 -19 -19 -19
-9 -10 -11 -11 -12 -13 -13 -14 -14 -15 -15 -15 -15 -15 -16 -16 -16 -16 -17 -17 -17 -18 -19 -20 -20 -20 -20 -20 -19 -19 -19 -19 -19 -19 -19 -19 -19 -19 -19 -19 -19 -19 -19 -19
-10 -11 -11 -12 -12 -13 -13 -14 -15 -15 -16 -16 -16 -16 -16 -16 -17 -18 -18 -18 -19 -20 -21 -21 -21 -21 -20 -20 -20 -20 -20 -19 -19 -19 -19 -19 -19 -19 -19 -19 -19 -19 -19 -19
-11 -11 -11 -12 -13 -13 -14 -15 -15 -16 -16 -16 -16 -17 -17 -18 -18 -19 -19 -20 -21 -21 -21 -21 -21 -21 -21 -21 -20 -20 -20 -20 -20 -20 -20 -19 -19 -19 -19 -19 -20 -19 -19 -20
-10 -11 -12 -13 -14 -14 -15 -15 -16 -16 -17 -17 -17 -17 -17 -18 -20 -20 -20 -21 -21 -21 -22 -22 -21 -22 -21 -21 -21 -21 -21 -21 -21 -20 -20 -20 -20 -20 -20 -20 -20 -20 -20 -20